Карточка аэропорта USPP

Внимание!
Информация на этой странице в стадии наполнения.
Если вы не увидели какой-то информации, или заметили неточность - пожалуйста сообщите нам!
Спасибо!
Команда RU-STAFF
Название аэропортаБольшое Савино
Название аэропорта (англ.)Bolshoe Savino
Превышение404 ft. (123.1 m.)
Координаты57°55.866', 56°1.6019999999999'
Высота перехода3700ft
Эшелон переходаQNH>1013:FL50; 1013>QNH>977:FL60; 977>QNH:FL70;
Коды ответчика5610-5617
Зона ОрВДЕкатеринбург РПИ (USSV)
Данные METARUSPP 160830Z 07003MPS 9999 SCT049 24/13 Q1018 R03/090060 NOSIG RMK QFE753
Проноз погоды (TAF)USPP 160755Z 1609/1709 05003G14MPS 9999 SCT040
NOTAMshow/hide NOTAM
AWOS   TABLE

Информация о ВПП

ВПП Длина ВПП (м.) Покрытие Курс ВПП Частота ILS
213204Железобетон211109.9
033204Железобетон31 

Диспетчерские позиции

Позывной Наименование органа УВД Частота
USPP_R_APPПермь-Круг121.700
USPP_APPПермь-Подход127.100
USPP_TWRПермь-Старт124.000



Спутниковое изображение